Hourly Data Report for January 12, 2021

TORONTO CITY
ONTARIO
Current Station Operator: ECCC - MSC

43°40'00.000" N
79°24'00.000" W
112.50 m
6158355
71508
XTO

Download Data

Hourly Data (January 2021)
Hourly Data Report for January 12, 2021
TIME
LST
Temp Definition
°C
Dew Point Definition
°C
Rel Hum Definition
%
Precip. Amount Definition
mm

Wind Dir Definition
10's deg

Wind Spd Definition
km/h
Visibility Definition
km
Stn Press Definition
kPa
Hmdx Definition


Wind Chill Definition


Weather Definition


00:00 0.1 -5.5 66 0.0       100.58     LegendNANA
01:00 0.0 -5.6 66 0.0       100.59     LegendNANA
02:00 -0.4 -4.7 72 0.0       100.60     LegendNANA
03:00 -0.6 -5.3 71 0.0       100.61     LegendNANA
04:00 -0.7 -5.3 71 0.0       100.59     LegendNANA
05:00 -0.7 -5.3 71 0.0       100.58     LegendNANA
06:00 -0.8 -5.0 74 0.0       100.57     LegendNANA
07:00 -0.9 -5.0 73 0.0       100.59     LegendNANA
08:00 -1.0 -4.8 75 0.0       100.58     LegendNANA
09:00 -0.9 -4.9 74 0.0       100.61     LegendNANA
10:00 -0.8 -5.1 73 0.0       100.63     LegendNANA
11:00 -0.5 -4.8 73 0.0       100.59     LegendNANA
12:00 -0.6 -4.4 76 0.0       100.48     LegendNANA
13:00 -0.7 -4.2 77 0.0       100.45     LegendNANA
14:00 -1.1 -3.3 85 0.0       100.42     LegendNANA
15:00 -0.9 -3.1 85 0.0       100.42     LegendNANA
16:00 -1.0 -2.6 89 0.2       100.40     LegendNANA
17:00 -0.8 -2.5 88 0.1       100.39     LegendNANA
18:00 -0.5 -2.7 85 0.0       100.42     LegendNANA
19:00 -0.4 -2.9 83 0.0       100.38     LegendNANA
20:00 -0.4 -3.1 82 0.0       100.40     LegendNANA
21:00 -0.3 -3.0 82 0.0       100.39     LegendNANA
22:00 -0.3 -3.0 82 0.0       100.34     LegendNANA
23:00 -0.4 -3.0 83 0.0       100.31     LegendNANA

Notes on Data Quality.

Legend

  • E = Estimated
  • M = Missing
  • NA = Not Available*
  • [empty] = Indicates an unobserved value
Date modified: